When you browse on this site, cookies collect data to enhance your experience and personalize the content and advertising you see.
Visit our Privacy Policy to learn more. By continuing to use the site, you agree to this use of cookies and data.
  • în România
  • Lista ţărilor
  • Pe 7 zile
  • Temperatura apei
  • Meteo pe hartă
  • Widget-uri
  • user-avatar
    Intrare

    Meteo pe oră la Shardzha

    Astăzi, 1 Iunie, Luni

    Timp Temperatura Precipitaţii Vânt Presiune Umiditate
    00:00 +38°C° 0 mm 2 m/s 752 mmHg 42%
    01:00 +38°C° 0 mm 3 m/s 752 mmHg 42%
    02:00 +37°C° 0 mm 3 m/s 751 mmHg 43%
    03:00 +37°C° 0 mm 2 m/s 751 mmHg 43%
    04:00 +37°C° 0 mm 2 m/s 751 mmHg 43%
    05:00 +38°C° 0 mm 4 m/s 752 mmHg 39%
    06:00 +39°C° 0 mm 5 m/s 752 mmHg 36%
    07:00 +40°C° 0 mm 6 m/s 753 mmHg 32%
    08:00 +41°C° 0 mm 7 m/s 753 mmHg 30%
    09:00 +44°C° 0 mm 8 m/s 753 mmHg 28%
    10:00 +45°C° 0 mm 9 m/s 753 mmHg 27%
    11:00 +45°C° 0 mm 9 m/s 753 mmHg 27%
    12:00 +45°C° 0 mm 8 m/s 753 mmHg 28%
    13:00 +46°C° 0 mm 8 m/s 753 mmHg 29%
    14:00 +45°C° 0 mm 7 m/s 752 mmHg 31%
    15:00 +44°C° 0 mm 7 m/s 752 mmHg 32%
    16:00 +42°C° 0 mm 6 m/s 751 mmHg 34%
    17:00 +41°C° 0 mm 5 m/s 751 mmHg 36%
    18:00 +40°C° 0 mm 4 m/s 751 mmHg 38%
    19:00 +38°C° 0 mm 3 m/s 751 mmHg 40%
    20:00 +38°C° 0 mm 2 m/s 751 mmHg 40%
    21:00 +37°C° 0 mm 2 m/s 751 mmHg 41%
    22:00 +37°C° 0 mm 2 m/s 752 mmHg 42%
    23:00 +37°C° 0 mm 2 m/s 752 mmHg 41%

    Mâine, 2 Iunie, Marţi

    Timp Temperatura Precipitaţii Vânt Presiune Umiditate
    00:00 +37°C° 0 mm 2 m/s 751 mmHg 39%
    01:00 +37°C° 0 mm 2 m/s 751 mmHg 38%
    02:00 +37°C° 0 mm 2 m/s 751 mmHg 37%
    03:00 +37°C° 0 mm 3 m/s 751 mmHg 36%
    04:00 +36°C° 0 mm 3 m/s 750 mmHg 35%
    05:00 +37°C° 0 mm 3 m/s 751 mmHg 34%
    06:00 +37°C° 0 mm 4 m/s 751 mmHg 33%
    07:00 +37°C° 0 mm 4 m/s 751 mmHg 33%
    08:00 +41°C° 0 mm 5 m/s 752 mmHg 28%
    09:00 +43°C° 0 mm 5 m/s 752 mmHg 23%
    10:00 +46°C° 0 mm 5 m/s 752 mmHg 18%
    11:00 +46°C° 0 mm 5 m/s 752 mmHg 20%
    12:00 +44°C° 0 mm 4 m/s 751 mmHg 22%
    13:00 +44°C° 0 mm 4 m/s 751 mmHg 25%
    14:00 +44°C° 0 mm 4 m/s 751 mmHg 24%
    15:00 +43°C° 0 mm 4 m/s 750 mmHg 24%
    16:00 +43°C° 0 mm 4 m/s 750 mmHg 24%
    17:00 +42°C° 0 mm 4 m/s 750 mmHg 28%
    18:00 +40°C° 0 mm 5 m/s 750 mmHg 32%
    19:00 +39°C° 0 mm 5 m/s 750 mmHg 37%
    20:00 +37°C° 0 mm 4 m/s 750 mmHg 41%
    21:00 +36°C° 0 mm 3 m/s 750 mmHg 45%
    22:00 +36°C° 0 mm 2 m/s 750 mmHg 49%
    23:00 +34°C° 0 mm 1 m/s 750 mmHg 51%

    Poimâine, 3 Iunie, Miercuri

    Timp Temperatura Precipitaţii Vânt Presiune Umiditate
    00:00 +34°C° 0 mm 1 m/s 750 mmHg 53%
    01:00 +31°C° 0 mm 0 m/s 750 mmHg 56%
    02:00 +33°C° 0 mm 1 m/s 750 mmHg 54%
    03:00 +34°C° 0 mm 2 m/s 749 mmHg 52%
    04:00 +34°C° 0 mm 3 m/s 749 mmHg 51%
    05:00 +34°C° 0 mm 4 m/s 749 mmHg 47%
    06:00 +35°C° 0 mm 4 m/s 750 mmHg 43%
    07:00 +36°C° 0 mm 5 m/s 750 mmHg 39%
    08:00 +39°C° 0 mm 5 m/s 750 mmHg 32%
    09:00 +41°C° 0 mm 5 m/s 750 mmHg 26%
    10:00 +43°C° 0 mm 4 m/s 751 mmHg 19%
    11:00 +45°C° 0 mm 5 m/s 751 mmHg 19%
    12:00 +45°C° 0 mm 5 m/s 750 mmHg 19%
    13:00 +46°C° 0 mm 5 m/s 750 mmHg 18%
    14:00 +46°C° 0 mm 5 m/s 750 mmHg 19%
    15:00 +45°C° 0 mm 5 m/s 749 mmHg 19%
    16:00 +44°C° 0 mm 4 m/s 749 mmHg 19%
    17:00 +43°C° 0 mm 4 m/s 749 mmHg 22%
    18:00 +42°C° 0 mm 3 m/s 749 mmHg 25%
    19:00 +40°C° 0 mm 3 m/s 749 mmHg 28%
    20:00 +39°C° 0 mm 2 m/s 749 mmHg 31%
    21:00 +38°C° 0 mm 2 m/s 749 mmHg 34%
    22:00 +37°C° 0 mm 2 m/s 750 mmHg 37%
    23:00 +37°C° 0 mm 2 m/s 749 mmHg 37%

    4 Iunie, Joi

    Timp Temperatura Precipitaţii Vânt Presiune Umiditate
    00:00 +36°C° 0 mm 3 m/s 749 mmHg 36%
    01:00 +36°C° 0 mm 3 m/s 749 mmHg 36%
    02:00 +36°C° 0 mm 3 m/s 749 mmHg 36%
    03:00 +35°C° 0 mm 3 m/s 749 mmHg 36%
    04:00 +35°C° 0 mm 3 m/s 748 mmHg 35%
    05:00 +36°C° 0 mm 3 m/s 749 mmHg 34%
    06:00 +36°C° 0 mm 3 m/s 749 mmHg 32%
    07:00 +37°C° 0 mm 4 m/s 750 mmHg 30%
    08:00 +40°C° 0 mm 4 m/s 750 mmHg 28%
    09:00 +42°C° 0 mm 5 m/s 750 mmHg 25%
    10:00 +45°C° 0 mm 5 m/s 750 mmHg 23%
    11:00 +45°C° 0 mm 6 m/s 750 mmHg 23%
    12:00 +46°C° 0 mm 6 m/s 750 mmHg 24%
    13:00 +46°C° 0 mm 6 m/s 750 mmHg 24%
    14:00 +46°C° 0 mm 6 m/s 749 mmHg 25%
    15:00 +45°C° 0 mm 5 m/s 749 mmHg 27%
    16:00 +43°C° 0 mm 5 m/s 748 mmHg 28%
    17:00 +42°C° 0 mm 4 m/s 748 mmHg 33%
    18:00 +39°C° 0 mm 3 m/s 748 mmHg 38%
    19:00 +38°C° 0 mm 2 m/s 748 mmHg 43%
    20:00 +37°C° 0 mm 2 m/s 749 mmHg 45%
    21:00 +37°C° 0 mm 2 m/s 749 mmHg 48%
    22:00 +36°C° 0 mm 3 m/s 749 mmHg 51%
    23:00 +36°C° 0 mm 2 m/s 749 mmHg 51%

    5 Iunie, Vineri

    Timp Temperatura Precipitaţii Vânt Presiune Umiditate
    00:00 +35°C° 0 mm 2 m/s 748 mmHg 52%
    01:00 +35°C° 0 mm 2 m/s 748 mmHg 53%
    02:00 +34°C° 0 mm 2 m/s 748 mmHg 54%
    03:00 +34°C° 0 mm 2 m/s 748 mmHg 55%
    04:00 +32°C° 0 mm 2 m/s 748 mmHg 57%
    05:00 +34°C° 0 mm 2 m/s 748 mmHg 52%
    06:00 +35°C° 0 mm 2 m/s 749 mmHg 48%
    07:00 +36°C° 0 mm 2 m/s 749 mmHg 43%
    08:00 +38°C° 0 mm 2 m/s 749 mmHg 37%
    09:00 +41°C° 0 mm 1 m/s 750 mmHg 31%
    10:00 +43°C° 0 mm 1 m/s 750 mmHg 25%
    11:00 +45°C° 0 mm 2 m/s 750 mmHg 24%
    12:00 +46°C° 0 mm 3 m/s 749 mmHg 23%
    13:00 +48°C° 0 mm 4 m/s 749 mmHg 23%
    14:00 +47°C° 0 mm 4 m/s 749 mmHg 23%
    15:00 +47°C° 0 mm 5 m/s 748 mmHg 23%
    16:00 +46°C° 0 mm 5 m/s 748 mmHg 23%
    17:00 +44°C° 0 mm 4 m/s 748 mmHg 28%
    18:00 +42°C° 0 mm 4 m/s 747 mmHg 32%
    19:00 +41°C° 0 mm 4 m/s 747 mmHg 36%
    20:00 +39°C° 0 mm 3 m/s 748 mmHg 39%
    21:00 +38°C° 0 mm 2 m/s 748 mmHg 41%
    22:00 +36°C° 0 mm 1 m/s 748 mmHg 44%
    23:00 +36°C° 0 mm 1 m/s 748 mmHg 44%

    6 Iunie, Sâmbătă

    Timp Temperatura Precipitaţii Vânt Presiune Umiditate
    00:00 +33°C° 0 mm 0 m/s 748 mmHg 44%
    01:00 +32°C° 0 mm 0 m/s 748 mmHg 45%
    02:00 +32°C° 0 mm 0 m/s 747 mmHg 44%
    03:00 +34°C° 0 mm 1 m/s 747 mmHg 44%
    04:00 +34°C° 0 mm 1 m/s 747 mmHg 43%
    05:00 +36°C° 0 mm 2 m/s 748 mmHg 38%
    06:00 +37°C° 0 mm 2 m/s 748 mmHg 33%
    07:00 +39°C° 0 mm 2 m/s 748 mmHg 28%
    08:00 +42°C° 0 mm 2 m/s 749 mmHg 23%
    09:00 +45°C° 0 mm 2 m/s 749 mmHg 18%
    10:00 +48°C° 0 mm 2 m/s 749 mmHg 13%
    11:00 +50°C° 0 mm 3 m/s 749 mmHg 12%
    12:00 +51°C° 0 mm 4 m/s 749 mmHg 11%
    13:00 +53°C° 0 mm 5 m/s 748 mmHg 10%
    14:00 +52°C° 0 mm 5 m/s 748 mmHg 13%
    15:00 +50°C° 0 mm 4 m/s 747 mmHg 16%
    16:00 +48°C° 0 mm 4 m/s 747 mmHg 19%
    17:00 +47°C° 0 mm 4 m/s 747 mmHg 22%
    18:00 +44°C° 0 mm 4 m/s 747 mmHg 26%
    19:00 +42°C° 0 mm 4 m/s 746 mmHg 30%
    20:00 +40°C° 0 mm 3 m/s 747 mmHg 31%
    21:00 +39°C° 0 mm 3 m/s 747 mmHg 32%
    22:00 +38°C° 0 mm 3 m/s 747 mmHg 33%
    23:00 +38°C° 0 mm 2 m/s 747 mmHg 36%
    Arată mai mult